Vertical_Velocity
2 -1 -0 -1 -2 -3 0 -3 -2 -0 -1 -4 0 1 5 2 0 1 -2 -2 -2 -1 -4 -3 -4 -4 -3 0 -1 1 2 1 4 8 3 0 -6 -4 -5 0 -11 -16 -5 5
1 -1 -1 1 1 2 -2 -3 3 4 3 -1 3 -1 -1 1 3 3 -1 -2 -1 -4 -2 2 1 3 -1 -2 1 -1 -1 -2 1 -0 0 6 -0 0 -1 -2 -7 -11 2 -2
1 1 1 0 1 -1 -0 -3 -4 -1 1 1 0 0 2 -0 -1 0 2 3 1 -1 -4 -4 -3 -0 2 0 -0 2 -1 -4 -3 -1 7 6 -0 5 4 3 -6 12 -13 4
-1 0 1 -0 1 2 2 -2 -5 1 -3 1 -1 -1 -2 -0 2 0 2 1 1 -2 -1 -1 -5 -1 -6 -5 -1 -3 -4 -0 -3 1 -1 -3 -0 -3 -4 -2 12 -12 22 1
1 1 0 -5 -2 -0 -0 -3 -2 -2 -0 0 -0 -1 -2 -2 -1 1 0 -1 1 2 -0 -0 1 0 -1 1 -2 1 2 1 -2 -8 -1 -1 1 -3 -7 -6 -10 -12 -5 -5
-0 2 0 -1 -2 -0 -4 -2 -4 1 2 0 1 -1 1 -2 -1 -0 -0 -1 0 0 1 2 0 -2 1 2 -2 -2 -0 2 -2 -3 -1 -4 -16 2 4 8 0 3 -22 19
-1 -1 1 1 1 0 3 0 2 0 -0 0 0 1 -1 1 -2 -2 -2 0 1 -2 -0 1 3 3 -1 -1 0 -2 -2 -2 -4 -1 1 -21 13 8 -1 -5 -3 -2 -0 7
1 -0 -1 1 2 -0 -1 -2 -1 0 -2 1 1 -0 0 -1 2 0 -2 -1 -2 1 -0 -1 -0 -1 4 0 -2 -0 -2 1 -1 -9 2 -1 1 1 5 1 6 -6 -2 -1
3 1 -1 -1 1 0 -1 -1 -2 -2 -1 -1 -2 -3 -2 1 0 -1 -0 -1 -0 -2 -0 1 -0 -1 -1 2 3 1 2 1 2 4 -3 -4 8 -0 1 7 -16 2 -3 4
0 -2 -1 -1 -4 -0 -1 -2 -3 -2 -1 -0 0 -2 -2 -3 -1 2 -1 -1 1 1 0 1 2 0 2 -2 2 3 1 2 -0 -3 1 5 4 -0 -3 -3 1 9 1 -2
3 2 -2 0 -1 -3 -0 -0 -1 -1 -1 -2 -2 -2 -2 -2 -1 0 -1 1 -3 1 1 2 2 2 1 0 2 1 1 -4 -0 -2 -6 -4 -2 -1 0 -3 -3 -2 3 0
-1 -0 -1 -3 -1 -4 -2 1 -2 -2 -1 2 -1 -3 -2 -4 -3 0 -1 -0 2 -0 2 3 2 3 4 4 -0 -1 -2 -2 -2 -7 3 -3 -3 -4 -4 -2 0 -3 -3 -4
5 4 3 -0 -2 -1 -5 -3 -2 -3 -0 -1 -3 -2 -1 -3 1 -1 3 0 2 0 -1 1 1 1 4 4 3 1 -3 -3 0 -4 5 -1 -2 -4 -3 -5 -1 1 0 -1
-0 4 3 0 -3 1 -8 -4 -2 -3 0 -3 -5 -3 -2 -2 0 0 1 0 0 0 -1 1 -1 -4 1 9 -0 2 -0 -0 5 4 5 -4 -0 2 -3 -2 -3 -6 -6 -1
2 -1 1 1 3 0 -3 -2 -2 3 -3 -2 2 -1 2 -1 -1 -1 -2 -2 -1 -1 -1 1 -0 4 -11 1 4 14 -7 0 -5 4 -2 -2 1 1 0 0 -1 -0 -0 -1
3 3 -1 -1 -1 7 -8 -2 10 9 -0 -9 -9 2 7 3 -1 5 0 -3 -1 -1 -4 2 4 3 -11 -0 20 -7 -1 -2 -6 3 3 1 3 2 0 0 1 -1 0 -0
4 5 3 3 -14 -1 -1 2 3 14 -4 -5 -18 -9 21 -2 -4 -0 -0 -4 -4 -5 -2 2 0 -3 -10 0 22 -8 -2 2 -1 -1 1 3 -3 2 2 2 1 1 1 1
6 7 11 4 -14 -20 -2 15 4 -1 1 -1 -15 1 9 -2 4 -3 1 -3 -2 -2 -5 3 -0 1 -8 -5 -10 -0 -4 -0 3 -2 -3 2 -1 3 2 3 3 2 3 3
15 12 -1 3 -53 -3 12 24 -4 -4 1 -8 -4 21 -3 11 9 1 -2 -1 -0 -5 2 0 -5 8 7 -12 0 -1 -3 -1 0 -0 1 1 2 3 2 2 2 2 2 2
10 14 7 -7 -27 7 17 -0 -10 -13 -2 -16 3 25 -7 -0 21 -4 -2 0 -1 -7 4 -4 3 12 -6 -7 -2 -3 -2 0 8 -0 1 1 2 1 2 2 3 2 2 2
6 5 3 10 0 7 5 -2 -7 -8 -7 -10 21 21 -10 21 -4 3 1 -1 -3 -7 4 -3 -4 13 6 -8 -6 -1 -0 -1 -0 2 1 1 0 2 0 -0 -0 0 1 -1
15 13 19 12 0 18 3 -14 -10 -1 -10 -4 17 25 4 6 4 5 6 0 -5 -5 0 -5 -1 11 -3 -4 -4 -1 1 2 3 2 1 0 0 1 1 1 2 3 2 0
19 15 7 2 -0 13 -19 -16 -20 -5 10 9 14 7 7 7 6 -7 3 0 -6 2 -11 -6 16 -4 -2 0 -2 1 -2 -1 -1 0 2 2 2 1 1 1 0 2 2 1
5 12 -4 7 -15 -18 -17 9 13 12 9 4 8 4 -0 3 0 6 5 -4 -4 -12 -2 11 -0 -3 -1 2 -1 1 1 0 1 2 2 2 2 2 2 2 1 0 -0 1
-1 2 -6 -20 10 4 3 3 6 10 20 9 -0 4 1 4 13 5 -0 -2 -10 -4 8 5 -3 -2 -3 1 1 -0 -1 1 2 2 1 1 1 0 0 -0 1 2 2 2
-5 -9 -0 10 10 17 8 7 12 15 20 0 7 7 8 10 4 -2 -2 -5 2 6 -6 -5 -2 1 -1 0 0 0 0 1 1 0 1 1 -1 -1 -1 -1 -0 0 0 -0
-10 -0 5 4 11 12 9 9 13 13 17 3 31 10 15 1 3 -1 3 5 2 -1 -1 -2 -2 -3 -3 -2 -3 -1 -1 0 -0 1 -2 -1 -0 -1 -2 -1 -2 1 0 2
Height
5743 5739 5735 5730 5724 5718 5712 5706 5702 5696 5690 5685 5679 5672 5665 5660 5655 5651 5651 5651 5649 5650 5651 5649 5649 5649 5648 5647 5647 5647 5648 5649 5648 5652 5655 5659 5665 5670 5676 5680 5686 5690 5695 5699
5740 5735 5731 5727 5723 5718 5712 5706 5701 5696 5692 5685 5681 5675 5670 5664 5660 5656 5653 5651 5651 5650 5650 5652 5650 5648 5648 5647 5647 5647 5648 5650 5650 5651 5654 5654 5659 5663 5669 5674 5677 5683 5687 5694
5733 5730 5725 5721 5718 5714 5710 5704 5699 5695 5690 5685 5681 5676 5672 5667 5662 5658 5655 5653 5651 5650 5650 5648 5648 5649 5647 5647 5647 5648 5648 5648 5649 5652 5652 5653 5655 5657 5660 5663 5669 5676 5682 5686
5725 5721 5718 5714 5710 5707 5705 5700 5695 5692 5688 5684 5680 5676 5672 5668 5663 5659 5655 5652 5650 5649 5647 5646 5646 5645 5645 5644 5643 5645 5646 5645 5645 5646 5647 5648 5650 5653 5656 5657 5661 5662 5674 5673
5713 5712 5709 5707 5703 5700 5697 5695 5691 5687 5684 5681 5677 5674 5671 5666 5663 5659 5655 5651 5647 5646 5645 5644 5641 5639 5640 5642 5641 5639 5640 5640 5639 5640 5640 5642 5643 5645 5646 5649 5652 5656 5660 5663
5703 5701 5699 5697 5694 5692 5690 5687 5683 5680 5678 5674 5672 5670 5666 5664 5660 5657 5654 5650 5646 5643 5640 5638 5637 5636 5634 5632 5632 5634 5632 5634 5634 5635 5635 5633 5633 5637 5637 5640 5643 5649 5650 5659
5692 5690 5688 5686 5684 5681 5679 5677 5676 5674 5671 5668 5664 5662 5661 5657 5655 5653 5650 5647 5644 5641 5636 5633 5630 5629 5629 5627 5625 5624 5625 5624 5625 5627 5626 5622 5630 5632 5631 5632 5634 5638 5642 5645
5679 5677 5676 5674 5672 5671 5669 5666 5665 5663 5662 5660 5658 5653 5652 5650 5648 5645 5643 5642 5639 5636 5633 5629 5626 5623 5622 5620 5619 5618 5617 5616 5616 5615 5616 5616 5619 5623 5624 5623 5626 5625 5629 5631
5666 5664 5662 5661 5660 5658 5657 5655 5653 5652 5650 5650 5648 5645 5642 5641 5639 5637 5635 5632 5629 5628 5625 5622 5620 5616 5614 5612 5612 5610 5609 5609 5609 5607 5606 5605 5607 5608 5608 5608 5609 5614 5616 5618
5650 5648 5647 5645 5644 5645 5642 5641 5640 5639 5638 5636 5634 5633 5631 5630 5628 5626 5624 5621 5619 5616 5614 5612 5610 5607 5605 5602 5602 5602 5600 5598 5599 5598 5597 5598 5597 5594 5594 5596 5604 5604 5604 5604
5634 5632 5630 5630 5628 5628 5627 5626 5625 5624 5623 5622 5620 5618 5618 5616 5614 5613 5611 5609 5605 5604 5601 5599 5598 5596 5594 5592 5592 5592 5590 5588 5590 5588 5588 5589 5588 5587 5586 5587 5585 5586 5589 5593
5617 5616 5615 5614 5613 5611 5611 5611 5609 5608 5607 5607 5604 5603 5603 5601 5599 5597 5595 5594 5591 5590 5588 5588 5584 5584 5582 5581 5579 5579 5579 5580 5580 5581 5580 5578 5577 5577 5577 5576 5577 5577 5578 5579
5604 5603 5601 5600 5599 5598 5598 5597 5596 5594 5592 5590 5588 5588 5587 5585 5583 5582 5582 5580 5578 5577 5576 5575 5574 5572 5571 5570 5569 5567 5567 5566 5566 5567 5570 5566 5564 5565 5565 5566 5567 5567 5567 5568
5587 5587 5586 5585 5584 5584 5584 5586 5585 5582 5581 5579 5579 5577 5575 5572 5571 5571 5570 5569 5568 5567 5565 5564 5563 5561 5560 5558 5557 5558 5558 5554 5552 5552 5557 5554 5555 5555 5555 5556 5556 5556 5556 5556
5571 5569 5569 5570 5570 5570 5570 5571 5572 5570 5570 5571 5573 5570 5568 5567 5565 5563 5562 5560 5558 5557 5557 5555 5554 5552 5547 5547 5548 5549 5543 5541 5537 5538 5542 5542 5544 5543 5544 5544 5544 5545 5545 5544
5553 5553 5552 5552 5553 5555 5555 5558 5560 5557 5557 5558 5561 5563 5559 5558 5556 5553 5552 5550 5548 5547 5547 5546 5545 5542 5538 5537 5541 5534 5531 5528 5526 5525 5527 5529 5530 5529 5530 5531 5531 5532 5532 5531
5533 5532 5531 5531 5534 5535 5536 5540 5544 5543 5542 5542 5542 5545 5550 5548 5546 5543 5540 5538 5538 5537 5536 5536 5534 5531 5529 5528 5529 5521 5518 5516 5515 5514 5513 5515 5514 5516 5516 5516 5517 5517 5517 5518
5510 5510 5508 5507 5511 5512 5519 5518 5520 5524 5523 5525 5524 5530 5535 5534 5531 5528 5526 5525 5523 5524 5522 5524 5522 5520 5519 5518 5514 5512 5507 5505 5504 5503 5500 5499 5499 5500 5501 5501 5502 5502 5503 5504
5490 5489 5483 5479 5479 5493 5500 5498 5499 5502 5504 5502 5509 5516 5519 5517 5516 5512 5511 5508 5507 5507 5509 5507 5506 5508 5507 5501 5499 5497 5496 5493 5491 5489 5487 5485 5484 5485 5486 5486 5487 5488 5488 5489
5465 5467 5459 5453 5461 5476 5481 5474 5476 5478 5481 5483 5493 5499 5500 5500 5495 5494 5494 5491 5491 5491 5494 5490 5492 5495 5490 5486 5485 5482 5480 5478 5476 5472 5471 5470 5470 5470 5470 5471 5472 5472 5473 5474
5440 5439 5440 5444 5450 5453 5453 5452 5456 5458 5463 5473 5479 5481 5483 5479 5478 5476 5474 5474 5474 5475 5479 5476 5476 5481 5474 5472 5471 5468 5465 5462 5460 5458 5457 5456 5455 5456 5455 5456 5457 5458 5458 5458
5423 5424 5426 5426 5430 5430 5429 5431 5438 5445 5452 5458 5465 5466 5463 5458 5460 5459 5460 5459 5457 5458 5461 5461 5461 5462 5458 5456 5455 5453 5451 5449 5447 5445 5444 5443 5443 5443 5444 5444 5444 5444 5444 5443
5402 5401 5402 5405 5406 5405 5411 5419 5423 5438 5442 5445 5447 5445 5442 5443 5446 5444 5445 5443 5443 5444 5445 5447 5448 5443 5441 5438 5437 5437 5436 5434 5433 5432 5431 5431 5431 5431 5431 5431 5430 5430 5429 5428
5379 5382 5381 5386 5388 5392 5404 5413 5421 5425 5428 5429 5429 5427 5429 5430 5430 5430 5430 5429 5428 5428 5431 5433 5430 5427 5427 5424 5422 5422 5421 5420 5420 5419 5419 5419 5419 5419 5418 5418 5418 5416 5415 5414
5363 5364 5364 5368 5376 5380 5388 5396 5403 5407 5412 5414 5415 5415 5416 5418 5417 5418 5417 5416 5416 5417 5418 5416 5414 5414 5413 5411 5409 5408 5408 5407 5407 5407 5407 5407 5406 5405 5404 5404 5403 5402 5400 5399
5350 5352 5354 5358 5362 5368 5374 5381 5388 5394 5398 5400 5403 5404 5404 5405 5404 5406 5405 5404 5405 5405 5402 5402 5401 5399 5398 5397 5396 5396 5396 5395 5394 5394 5394 5393 5392 5391 5389 5388 5387 5386 5385 5382
5340 5343 5344 5345 5348 5352 5360 5367 5375 5379 5383 5390 5390 5390 5392 5391 5392 5394 5395 5395 5393 5391 5390 5388 5387 5386 5385 5384 5383 5382 5381 5381 5381 5380 5380 5379 5377 5375 5374 5372 5371 5369 5367 5364